This is the latest recevied weather packets stored in our database for station/object KC8PTQ. If no packets are shown the sender has not sent any weather packets the latest 1 day(s).
| Time | Temp. | Humidity | Pressure | Rain* | Wind** | Luminosity | Snow |
|---|---|---|---|---|---|---|---|
| 1778022602 | 13.33° C | 99% | 1009.2 hPa | 3.05 mm | 0 m/s | 7 W/m² | - |
| 1778022299 | 13.33° C | 99% | 1009.1 hPa | 4.83 mm | 0 m/s | 6 W/m² | - |
| 1778021995 | 13.33° C | 99% | 1008.9 hPa | 4.83 mm | 0 m/s | 9 W/m² | - |
| 1778021692 | 13.33° C | 99% | 1008.9 hPa | 3.05 mm | 0 m/s | 10 W/m² | - |
| 1778021388 | 13.89° C | 99% | 1009.1 hPa | 4.32 mm | 0 m/s | 12 W/m² | - |
| 1778021085 | 13.89° C | 99% | 1009.2 hPa | 6.1 mm | 0 m/s | 15 W/m² | - |
| 1778020782 | 13.89° C | 99% | 1009.2 hPa | 10.67 mm | 0 m/s | 13 W/m² | - |
| 1778020479 | 13.89° C | 99% | 1009.3 hPa | 13.72 mm | 0.45 m/s, 307° | 11 W/m² | - |
| 1778020176 | 13.89° C | 99% | 1009.3 hPa | 15.49 mm | 0 m/s | 8 W/m² | - |
| 1778019872 | 14.44° C | 99% | 1009.4 hPa | 8.89 mm | 0 m/s | 7 W/m² | - |
| 1778019568 | 14.44° C | 99% | 1009.2 hPa | 1.27 mm | 0 m/s | 4 W/m² | - |
| 1778019265 | 14.44° C | 99% | 1009.1 hPa | 0 mm | 0 m/s | 5 W/m² | - |
| 1778018962 | 14.44° C | 98% | 1008.7 hPa | 1.78 mm | 0 m/s | 18 W/m² | - |
| 1778018659 | 14.44° C | 98% | 1008.5 hPa | 1.78 mm | 0 m/s | 33 W/m² | - |
| 1778018357 | 14.44° C | 98% | 1008.8 hPa | 0 mm | 0 m/s | 28 W/m² | - |
| 1778018055 | 14.44° C | 98% | 1008.6 hPa | 0 mm | 0 m/s | 35 W/m² | - |
| 1778017753 | 14.44° C | 98% | 1008.5 hPa | 0 mm | 0 m/s | 31 W/m² | - |
| 1778017450 | 14.44° C | 98% | 1008.8 hPa | 0 mm | 0 m/s | 28 W/m² | - |
| 1778017147 | 14.44° C | 98% | 1008.9 hPa | 0 mm | 0 m/s | 31 W/m² | - |
| 1778016845 | 14.44° C | 98% | 1008.8 hPa | 0 mm | 0 m/s | 36 W/m² | - |
| 1778016541 | 14.44° C | 98% | 1008.9 hPa | 0 mm | 0 m/s | 24 W/m² | - |
| 1778016238 | 14.44° C | 98% | 1008.9 hPa | 0 mm | 0 m/s | 38 W/m² | - |
| 1778015934 | 14.44° C | 97% | 1008.6 hPa | 0 mm | 0 m/s | 27 W/m² | - |
| 1778015631 | 14.44° C | 97% | 1008.8 hPa | 0 mm | 0 m/s | 36 W/m² | - |
| 1778015328 | 14.44° C | 97% | 1009 hPa | 0 mm | 0 m/s | 19 W/m² | - |
* Rain latest hour (hover to see other rain measurements)
** Current wind speed in m/s (hover to see current wind gust speed)